Location: Tierra Monte Subdivision
(35.2092°N, 106.4864°W)
Time: 04:00:11
(UTC+00:00)

NOSS 3-3 (A) - Pass Details

Date: 30 March 2020
Orbit: 834 x 1378 km, 63.4° (Epoch: 05 May)

Event Time Altitude Azimuth Distance (km) Brightness Sun altitude
Rises 03:31:10 0° 212° (SSW) 3,379 6.9 -25.5°
Reaches altitude 10° 03:33:32 10° 213° (SSW) 2,471 6.2 -25.9°
Maximum altitude 03:39:13 83° 302° (WNW) 909 3.8 -27.0°
Drops below altitude 10° 03:45:32 10° 30° (NNE) 2,734 6.3 -28.1°
Sets 03:48:16 0° 31° (NNE) 3,765 7.1 -28.6°
